Home   Weather   Columbus Park   Past weeks
Flag for USA

Past Weather in Columbus Park, New York, USA — Yesterday and Last 2 Weeks

Now
35 °F

Clear.


Feels Like: 30 °F
Forecast: 44 / 24 °F
Wind: 6 mph from North

Location: New York City - Central Park

Current Time: Dec 7, 2019 at 7:10:05 pm

Latest Report: Dec 7, 2019 at 5:51 pm


Visibility: 10 mi

Pressure: 30.43 "Hg

Humidity: 42%

Dew Point: 14 °F

Location of Columbus ParkLocation

Past Weather in Columbus Park — Graph

°F

Columbus Park Temperature Yesterday

Maximum temperature yesterday: 49 °F (at 2:51 pm)
Minimum temperature yesterday: 35 °F (at 1:51 am)
Average temperature yesterday: 42 °F

High & Low Weather Summary for the Past Weeks

 TemperatureHumidityPressure
High60 °F (Nov 26, 1:51 pm)97% (Nov 24, 2:21 am)30.43 "Hg (Nov 24, 2:21 am)
Low30 °F (Dec 1, 4:51 am)26% (Nov 30, 12:51 pm)29.24 "Hg (Nov 24, 11:51 am)
Average40 °F66%29.80 "Hg
* Reported Nov 22 5:51 pm — Dec 7 5:51 pm, Columbus Park. Weather by CustomWeather, © 2019

Note: Actual official high and low records may vary slightly from our data, if they occured in-between our weather recording intervals... More about our weather records

Columbus Park Weather History for the Previous 24 Hours

Scroll right to see more
 ConditionsComfort  
Time TempWeatherWind HumidityBarometerVisibility
5:51 pm
Sat, Dec 7
35 °FClear.6 mph42%30.43 "Hg10 mi
4:51 pm36 °FClear.7 mph40%30.40 "Hg10 mi
3:51 pm37 °FSunny.6 mph37%30.37 "Hg10 mi
2:51 pm38 °FSunny.9 mph36%30.36 "Hg10 mi
1:51 pm38 °FSunny.10 mph36%30.35 "Hg10 mi
12:51 pm37 °FSunny.10 mph37%30.35 "Hg10 mi
11:51 am36 °FSunny.N/A40%30.35 "Hg10 mi
10:51 am35 °FSunny.6 mph44%30.36 "Hg10 mi
9:51 am34 °FSunny.8 mph48%30.36 "Hg10 mi
8:51 am33 °FSunny.10 mph52%30.35 "Hg10 mi
7:51 am33 °FSunny.8 mph54%30.33 "Hg10 mi
6:51 am33 °FClear.6 mph54%30.31 "Hg10 mi
5:51 am33 °FClear.8 mph54%30.28 "Hg10 mi
4:51 am34 °FClear.3 mph56%30.25 "Hg10 mi
3:51 am34 °FClear.5 mph59%30.23 "Hg10 mi
2:51 am35 °FClear.12 mph56%30.21 "Hg10 mi
1:51 am36 °FClear.13 mph54%30.19 "Hg10 mi
12:51 am37 °FClear.9 mph52%30.15 "Hg10 mi
11:51 pm
Fri, Dec 6
38 °FClear.12 mph51%30.13 "Hg10 mi
10:51 pm40 °FClear.8 mph49%30.12 "Hg10 mi
9:51 pm42 °FClear.10 mph47%30.09 "Hg10 mi
8:51 pm44 °FPassing clouds.14 mph49%30.06 "Hg10 mi
7:51 pm47 °FOvercast.9 mph52%30.02 "Hg10 mi
Weather by CustomWeather, © 2019

See weather overview

Advertising